Flag Weather past 2 weeks in Opole, Poland

Now
43 °F

Fog.


Feels Like: 41 °F
Forecast: 32 / 41 °F
Wind: 3 mph from Northwest

Location: Wroclaw Ii

Current Time: Nov 25, 2014 at 3:07:34 AM

Latest Report: Nov 25, 2014 at 2:30 AM


Visibility: 3 mi

Pressure: 30.30 "Hg

Humidity: 93%

Dew point: 41 °F

Location of OpoleLocation

Historic Weather in Opole — Graph

°F

Opole temperature yesterday

Maximum temperature yesterday: 45 °F (at 1:30 PM)
Minimum temperature yesterday: 37 °F (at 3:00 AM)
Average temperature yesterday: 41 °F

Past Weeks' High & Low Weather Summary

 TemperatureHumidityPressure
High64 °F (Nov 12, 12:30 PM)100% (Nov 17, 10:30 AM)30.33 "Hg (Nov 17, 10:30 AM)
Low36 °F (Nov 17, 5:30 AM)60% (Nov 12, 12:30 PM)29.65 "Hg (Nov 16, 6:30 AM)
Average46 °F88%30.02 "Hg
* Reported Nov 10 2:00 AM — Nov 25 2:00 AM, Opole, Weather by CustomWeather, © 2014

Note: Actual official high and low records may vary slightly from our data, if they occured in-between our weather recording intervals... More about our weather records

Advertising

Opole weather history for previous 24 hours

 ConditionsComfort  
Time TempWeatherWind HumidityBarometerVisibility
2:00 AM
Nov 25
43 °FFog.6 mph93%30.30 "Hg3 mi
1:30 AM45 °FFog.7 mph87%30.30 "Hg2 mi
1:00 AM45 °FFog.6 mph93%30.30 "Hg2 mi
12:30 AM45 °FFog.5 mph93%30.30 "Hg2 mi
12:00 AM45 °FFog.7 mph93%30.30 "Hg3 mi
11:30 PM
Nov 24
45 °FFog.8 mph93%30.30 "Hg3 mi
11:00 PM45 °FFog.7 mph93%30.30 "Hg3 mi
10:30 PM45 °FFog.7 mph93%30.27 "Hg3 mi
10:00 PM45 °FFog.9 mph93%30.27 "Hg3 mi
9:30 PM45 °FFog.9 mph93%30.27 "Hg2 mi
9:00 PM45 °FFog.7 mph93%30.24 "Hg2 mi
8:30 PM45 °FFog.9 mph93%30.24 "Hg2 mi
8:00 PM43 °FDrizzle. Fog.9 mph100%30.24 "Hg1 mi
7:30 PM43 °FDrizzle. Fog.9 mph100%30.24 "Hg2 mi
7:00 PM43 °FLight rain. Fog.8 mph100%30.24 "Hg2 mi
6:30 PM43 °FLight rain. Fog.8 mph93%30.21 "Hg1 mi
6:00 PM43 °FLight rain. Fog.7 mph93%30.21 "Hg2 mi
5:30 PM43 °FLight rain. Fog.7 mph93%30.21 "Hg3 mi
5:00 PM43 °FLight rain. Fog.7 mph93%30.21 "Hg3 mi
4:30 PM45 °FLight rain. Overcast.6 mph81%30.21 "Hg4 mi
4:00 PM45 °FLight rain. Fog.2 mph87%30.21 "Hg3 mi
3:30 PM45 °FLight rain. Partly sunny.1 mph81%30.18 "Hg6 mi
3:00 PM45 °FPartly sunny.5 mph81%30.18 "HgN/A
2:30 PM45 °FScattered clouds.3 mph81%30.18 "HgN/A
2:00 PM45 °FSunny.5 mph76%30.21 "Hg10 mi
1:30 PM45 °FSunny.8 mph81%30.18 "Hg10 mi
1:00 PM43 °FSunny.9 mph81%30.18 "Hg10 mi
12:30 PM43 °FSunny.10 mph81%30.18 "Hg10 mi
12:00 PM43 °FSunny.10 mph81%30.21 "Hg10 mi
11:30 AM41 °FSunny.10 mph81%30.21 "Hg10 mi
11:00 AM41 °FSunny.16 mph81%30.18 "Hg10 mi
10:30 AM39 °FSunny.18 mph87%30.18 "Hg10 mi
10:00 AM39 °FSunny.18 mph81%30.18 "Hg10 mi
9:30 AM37 °FSunny.18 mph87%30.18 "Hg10 mi
9:00 AM37 °FSunny.20 mph87%30.18 "Hg10 mi
8:30 AM37 °FSunny.18 mph87%30.18 "Hg10 mi
8:00 AM37 °FClear.14 mph87%30.21 "Hg5 mi
7:30 AM37 °FClear.16 mph87%30.18 "Hg6 mi
7:00 AM37 °FClear.15 mph87%30.21 "Hg6 mi
6:30 AM37 °FClear.16 mph87%30.21 "Hg5 mi
6:00 AM37 °FClear.15 mph87%30.21 "Hg5 mi
5:30 AM37 °FClear.15 mph87%30.21 "Hg5 mi
5:00 AM37 °FClear.16 mph87%30.21 "Hg5 mi
4:30 AM37 °FClear.14 mph87%30.21 "Hg5 mi
4:00 AM39 °FClear.14 mph81%30.24 "Hg5 mi
3:30 AM39 °FClear.14 mph81%30.24 "Hg5 mi
3:00 AM37 °FClear.12 mph87%30.24 "Hg5 mi
Weather by CustomWeather, © 2014

See weather overviewHow to use our weather pages